Effective Sunday, March 17, 2024, the National Weather Service National Data Buoy Center will discontinue its Dial-A-Buoy Interactive Voice Response system. For more information, see Service Change Notice 24-06 (PDF).

Station BGNN6 - 8519483 - Bergen Point West Reach, NY Image indicating link to RSS feed of recent meteorological observations for station BGNN6


Conditions at BGNN6 as of
(1:18 am EST)
0618 GMT on 02/23/2024:
     

Click on the graph icon in the table below to see a time series plot of the last five days of that observation.

5-day plot - Atmospheric Pressure Atmospheric Pressure (PRES):29.62 in
5-day plot - Air Temperature Air Temperature (ATMP): 41.4 °F
5-day plot - Water Temperature Water Temperature (WTMP): 40.5 °F
NOS Water Level Observation Network Water Level
Previous observations
TIME
(EST)
5-day plot - Wind Direction
WDIR
 
5-day plot - Wind Speed
WSPD
kts
5-day plot - Wind Gust
GST
kts
5-day plot - Wave Height
WVHT
ft
5-day plot - Dominant Wave Period
DPD
sec
5-day plot - Average Wave Period
APD
sec
5-day plot - Mean Wave Direction
MWD
 
5-day plot - Atmospheric Pressure
PRES
in
5-day plot - Pressure Tendency
PTDY
in
5-day plot - Air Temperature
ATMP
°F
5-day plot - Water Temperature
WTMP
°F
5-day plot - Dew Point
DEWP
°F
5-day plot - Salinity
SAL
psu
5-day plot - Visibility
VIS
nmi
5-day plot - Tide (above MLLW)
TIDE
ft
2024-02-23 01:12 am-------29.63- 41.2 40.5----
2024-02-23 01:06 am-------29.63- 41.2 40.5----
2024-02-23 01:00 am-------29.63-0.09 41.2 40.5----
2024-02-23 12:54 am-------29.64- 41.2 40.5----
2024-02-23 12:48 am-------29.64- 41.2 40.5----
2024-02-23 12:42 am-------29.65- 41.2 40.5----
2024-02-23 12:36 am-------29.65- 41.2 40.5----
2024-02-23 12:30 am-------29.65- 41.2 40.5----
2024-02-23 12:24 am-------29.66- 41.0 40.5----
2024-02-23 12:18 am-------29.67- 41.0 40.5----
2024-02-23 12:12 am-------29.66- 41.0 40.6----
2024-02-23 12:06 am-------29.66- 40.8 40.6----
2024-02-23 12:00 am-------29.67-0.12 40.8 40.5----
2024-02-22 11:54 pm-------29.67- 40.8 40.5----
2024-02-22 11:48 pm-------29.67- 40.6 40.5----
2024-02-22 11:42 pm-------29.67- 40.6 40.5----
2024-02-22 11:36 pm-------29.67- 40.6 40.5----
2024-02-22 11:30 pm-------29.68- 40.6 40.5----
2024-02-22 11:24 pm-------29.68- 40.5 40.5----
2024-02-22 11:18 pm-------29.68- 40.5 40.5----
2024-02-22 11:12 pm-------29.68- 40.5 40.5----
2024-02-22 11:06 pm-------29.69- 40.5 40.5----
2024-02-22 11:00 pm-------29.69-0.10 40.3 40.5----
2024-02-22 10:54 pm-------29.70- 40.3 40.5----
2024-02-22 10:48 pm-------29.70- 40.3 40.6----
2024-02-22 10:42 pm-------29.70- 40.3 40.5----
2024-02-22 10:36 pm-------29.71- 40.1 40.5----
2024-02-22 10:30 pm-------29.71- 40.1 40.5----
2024-02-22 10:24 pm-------29.71- 40.3 40.6----
2024-02-22 10:18 pm-------29.72- 40.1 40.6----
2024-02-22 10:12 pm-------29.72- 40.1 40.6----
2024-02-22 10:06 pm-------29.72- 40.1 40.6----
2024-02-22 10:00 pm-------29.72-0.09 40.3 40.5----
2024-02-22 09:54 pm-------29.73- 40.3 40.5----
2024-02-22 09:48 pm-------29.74- 40.3 40.5----
2024-02-22 09:42 pm-------29.74- 40.3 40.5----
2024-02-22 09:36 pm-------29.75- 40.3 40.5----
2024-02-22 09:30 pm-------29.76- 40.3 40.6----
2024-02-22 09:24 pm-------29.76- 40.3 40.5----
2024-02-22 09:18 pm-------29.77- 40.3 40.6----
2024-02-22 09:12 pm-------29.77- 40.1 40.6----
2024-02-22 09:06 pm-------29.77- 40.3 40.6----
2024-02-22 09:00 pm-------29.78-0.02 40.1 40.6----
2024-02-22 08:54 pm-------29.78- 40.1 40.6----
2024-02-22 08:48 pm-------29.78- 40.1 40.6----
2024-02-22 08:42 pm-------29.78- 40.1 40.6----
2024-02-22 08:36 pm-------29.78- 40.1 40.6----
2024-02-22 08:30 pm-------29.78- 40.1 40.6----
2024-02-22 08:24 pm-------29.78- 40.1 40.6----
2024-02-22 08:18 pm-------29.78- 40.1 40.6----
2024-02-22 08:12 pm-------29.79- 40.3 40.6----
2024-02-22 08:06 pm-------29.79- 40.3 40.6----
2024-02-22 08:00 pm-------29.79-0.01 40.3 40.6----
2024-02-22 07:54 pm-------29.79- 40.3 40.6----
2024-02-22 07:48 pm-------29.80- 40.5 40.6----
2024-02-22 07:42 pm-------29.80- 40.5 40.6----
2024-02-22 07:36 pm-------29.80- 40.6 40.6----
2024-02-22 07:30 pm-------29.81- 40.8 40.6----
2024-02-22 07:24 pm-------29.82- 40.8 40.6----
2024-02-22 07:18 pm-------29.81- 40.6 40.6----
2024-02-22 07:12 pm-------29.81- 40.6 40.6----
2024-02-22 07:06 pm-------29.82- 40.6 40.6----
2024-02-22 07:00 pm-------29.81-0.02 40.6 40.6----
2024-02-22 06:54 pm-------29.81- 40.6 40.6----
2024-02-22 06:48 pm-------29.81- 40.6 40.6----
2024-02-22 06:42 pm-------29.81- 40.6 40.6----
2024-02-22 06:36 pm-------29.81- 40.6 40.6----
2024-02-22 06:30 pm-------29.81-- 40.6----
2024-02-22 06:24 pm-------29.80-- 40.6----
2024-02-22 06:00 pm-------29.80-0.05- 40.6----
2024-02-22 05:54 pm-------29.79-- 40.6----
2024-02-22 05:48 pm-------29.79- 40.5 40.6----
2024-02-22 05:42 pm-------29.79- 40.6 40.6----
2024-02-22 05:36 pm-------29.80- 40.8 40.6----
2024-02-22 05:30 pm-------29.80- 40.8 40.6----
2024-02-22 05:24 pm-------29.80- 41.2 40.6----
2024-02-22 05:18 pm-------29.80- 41.4 40.6----
2024-02-22 05:12 pm-------29.79- 41.2 40.6----
2024-02-22 05:06 pm-------29.80- 41.2 40.6----
2024-02-22 05:00 pm-------29.80-0.09 41.2 40.6----
2024-02-22 04:54 pm-------29.80- 41.4 40.6----
2024-02-22 04:48 pm-------29.81- 41.4 40.6----
2024-02-22 04:42 pm-------29.82- 41.2 40.5----
2024-02-22 04:36 pm-------29.82- 41.2 40.5----
2024-02-22 04:30 pm-------29.82- 41.2 40.5----
2024-02-22 04:24 pm-------29.83- 41.4 40.5----
2024-02-22 04:18 pm-------29.83- 41.5 40.5----
2024-02-22 04:12 pm-------29.84- 41.7 40.5----
2024-02-22 04:06 pm-------29.83- 41.9 40.5----
2024-02-22 04:00 pm-------29.83-0.11 42.1 40.6----
2024-02-22 03:54 pm-------29.83- 42.1 40.6----
2024-02-22 03:48 pm-------29.83- 42.3 40.6----
2024-02-22 03:42 pm-------29.83- 42.3 40.5----
2024-02-22 03:36 pm-------29.83- 42.8 40.5----
2024-02-22 03:30 pm-------29.83- 43.2 40.5----
2024-02-22 03:24 pm-------29.84- 43.2 40.5----
2024-02-22 03:18 pm-------29.84- 43.0 40.5----
2024-02-22 03:12 pm-------29.85- 43.7 40.5----
2024-02-22 03:06 pm-------29.85- 43.3 40.5----
2024-02-22 03:00 pm-------29.85-0.14 42.8 40.5----
2024-02-22 02:54 pm-------29.85- 42.4 40.5----
2024-02-22 02:48 pm-------29.86- 42.1 40.5----
2024-02-22 02:42 pm-------29.86- 42.1 40.6----
2024-02-22 02:36 pm-------29.87- 42.1 40.6----
2024-02-22 02:30 pm-------29.87- 41.7 40.6----
2024-02-22 02:24 pm-------29.88- 41.9 40.6----
2024-02-22 02:18 pm-------29.88- 42.6 40.6----
2024-02-22 02:12 pm-------29.89- 42.6 40.6----
2024-02-22 02:06 pm-------29.89- 42.3 40.6----
2024-02-22 02:00 pm-------29.90-0.14 41.5 40.6----
2024-02-22 01:54 pm-------29.90- 41.7 40.5----
2024-02-22 01:48 pm-------29.90- 41.7 40.5----
2024-02-22 01:42 pm-------29.91- 41.5 40.5----
2024-02-22 01:36 pm-------29.92- 41.0 40.6----
2024-02-22 01:30 pm-------29.92- 41.5 40.8----
2024-02-22 01:24 pm-------29.93- 42.1 40.6----
2024-02-22 01:18 pm-------29.93- 41.9 40.8----
2024-02-22 01:12 pm-------29.93- 41.7 40.6----
2024-02-22 01:06 pm-------29.94- 42.4 40.8----
2024-02-22 01:00 pm-------29.94-0.11 41.9 40.8----
2024-02-22 12:54 pm-------29.95- 42.4 40.8----
2024-02-22 12:48 pm-------29.95- 43.3 40.6----
2024-02-22 12:42 pm-------29.96- 42.8 40.6----
2024-02-22 12:36 pm-------29.96- 43.2 40.6----
2024-02-22 12:30 pm-------29.96- 44.1 40.6----
2024-02-22 12:24 pm-------29.97- 43.9 40.6----
2024-02-22 12:18 pm-------29.98- 42.6 40.6----
2024-02-22 12:12 pm-------29.98- 43.3 40.6----
2024-02-22 12:06 pm-------29.99- 42.8 40.5----
2024-02-22 12:00 pm-------29.99-0.09 42.8 40.5----
2024-02-22 11:54 am-------30.00- 43.3 40.5----
2024-02-22 11:48 am-------30.00- 41.9 40.5----
2024-02-22 11:42 am-------30.01- 42.6 40.5----
2024-02-22 11:36 am-------30.01- 42.6 40.5----
2024-02-22 11:30 am-------30.02- 42.1 40.6----
2024-02-22 11:24 am-------30.02- 42.8 40.6----
2024-02-22 11:18 am-------30.02- 41.7 40.6----
2024-02-22 11:12 am-------30.03- 41.5 40.6----
2024-02-22 11:06 am-------30.03- 40.6 40.6----
2024-02-22 11:00 am-------30.03-0.08 41.0 40.6----
2024-02-22 10:54 am-------30.04- 40.3 40.6----
2024-02-22 10:48 am-------30.04-------
2024-02-22 10:42 am-------30.04-------
2024-02-22 10:36 am-------30.04-------
2024-02-22 10:30 am-------30.04- 40.1 40.1----
2024-02-22 10:24 am-------30.05- 39.7 40.1----
2024-02-22 10:18 am-------30.05- 39.6 40.1----
2024-02-22 10:12 am-------30.04- 39.7 40.1----
2024-02-22 10:06 am-------30.05- 39.2 40.1----
2024-02-22 10:00 am-------30.05-0.07 40.1 40.1----
2024-02-22 09:54 am-------30.05- 39.2 40.1----
2024-02-22 09:48 am-------30.06- 38.5 40.1----
2024-02-22 09:42 am-------30.06- 38.7 40.1----
2024-02-22 09:36 am-------30.06- 38.8 40.1----
2024-02-22 09:30 am-------30.06- 38.1 39.9----
2024-02-22 09:24 am-------30.07- 38.8 39.9----
2024-02-22 09:18 am-------30.08- 38.1 39.9----
2024-02-22 09:12 am-------30.08- 38.5 39.9----
2024-02-22 09:06 am-------30.08- 37.9 39.9----
2024-02-22 09:00 am-------30.08-0.06 37.8 39.9----
2024-02-22 08:54 am-------30.08- 37.2 39.9----
2024-02-22 08:48 am-------30.08- 37.0 39.9----
2024-02-22 08:42 am-------30.09- 36.9 39.9----
2024-02-22 08:36 am-------30.09- 36.9 39.9----
2024-02-22 08:30 am-------30.10- 36.5 39.7----
2024-02-22 08:24 am-------30.10- 36.3 40.1----
2024-02-22 08:18 am-------30.11- 36.1 40.1----
2024-02-22 08:12 am-------30.10- 36.1 40.1----
2024-02-22 08:06 am-------30.11- 35.8 39.9----
2024-02-22 08:00 am-------30.11-0.05 35.6 39.9----
2024-02-22 07:54 am-------30.11- 34.9 39.7----
2024-02-22 07:48 am-------30.11- 33.8 39.7----
2024-02-22 07:42 am-------30.12- 33.6 39.9----
2024-02-22 07:36 am-------30.12- 33.8 39.9----
2024-02-22 07:30 am-------30.12- 34.2 39.9----
2024-02-22 07:24 am-------30.12- 33.6 39.7----
2024-02-22 07:18 am-------30.12- 33.3 39.9----
2024-02-22 07:12 am-------30.12- 32.9 40.1----
2024-02-22 07:06 am-------30.12- 32.4 40.1----
2024-02-22 07:00 am-------30.12-0.04 31.8 40.1----
2024-02-22 06:54 am-------30.13- 31.5 40.1----
2024-02-22 06:48 am-------30.13- 31.3 40.1----
2024-02-22 06:42 am-------30.13- 31.3 40.1----
2024-02-22 06:36 am-------30.13- 31.1 40.1----
2024-02-22 06:30 am-------30.14- 31.1 40.1----
2024-02-22 06:24 am-------30.14- 31.3 39.9----
2024-02-22 06:18 am-------30.14- 31.3 40.1----
2024-02-22 06:12 am-------30.14- 31.1 40.1----
2024-02-22 06:06 am-------30.14- 31.1 40.1----
2024-02-22 06:00 am-------30.14-0.04- 40.1----
2024-02-22 05:54 am-------30.14-- 39.9----
2024-02-22 05:48 am-------30.14- 31.3 40.1----
2024-02-22 05:42 am-------30.15- 31.5 39.9----
2024-02-22 05:36 am-------30.15- 31.8 39.9----
2024-02-22 05:30 am-------30.16- 32.0 39.9----
2024-02-22 05:24 am-------30.16- 31.8 39.9----
2024-02-22 05:18 am-------30.16- 31.8 40.1----
2024-02-22 05:12 am-------30.16- 32.0 39.9----
2024-02-22 05:06 am-------30.16- 32.0 39.9----
2024-02-22 05:00 am-------30.16-0.06 32.2 39.9----
2024-02-22 04:54 am-------30.16- 32.5 39.9----
2024-02-22 04:48 am-------30.16- 32.5 39.9----
2024-02-22 04:42 am-------30.16- 32.7 39.9----
2024-02-22 04:36 am-------30.16- 32.9 39.7----
2024-02-22 04:30 am-------30.16- 32.9 39.7----
2024-02-22 04:24 am-------30.16- 32.9 39.7----
2024-02-22 04:18 am-------30.16- 33.1 39.7----
2024-02-22 04:12 am-------30.16- 32.9 39.7----
2024-02-22 04:06 am-------30.16- 33.1 39.9----
2024-02-22 04:00 am-------30.16-0.07 33.1 39.9----
2024-02-22 03:54 am-------30.16- 33.1 39.9----
2024-02-22 03:48 am-------30.16- 33.1 39.9----
2024-02-22 03:42 am-------30.16- 33.4 39.9----
2024-02-22 03:36 am-------30.17- 33.4 39.9----
2024-02-22 03:30 am-------30.17- 33.6 40.1----
2024-02-22 03:24 am-------30.17- 33.8 39.9----
2024-02-22 03:18 am-------30.17- 33.8 39.9----
2024-02-22 03:12 am-------30.18- 34.0 39.9----
2024-02-22 03:06 am-------30.18- 34.0 39.9----
2024-02-22 03:00 am-------30.18-0.08 34.3 39.9----
2024-02-22 02:54 am-------30.19- 34.3 39.9----
2024-02-22 02:48 am-------30.19- 34.3 39.9----
2024-02-22 02:42 am-------30.20- 34.3 39.9----
2024-02-22 02:36 am-------30.20- 34.5 39.9----
2024-02-22 02:30 am-------30.21- 34.7 39.9----
2024-02-22 02:24 am-------30.21- 34.7 39.9----
2024-02-22 02:18 am-------30.22- 34.7 39.9----
2024-02-22 02:12 am-------30.22- 34.7 39.9----
2024-02-22 02:06 am-------30.22- 34.7 39.9----
2024-02-22 02:00 am-------30.22-0.05 34.7 39.9----
2024-02-22 01:54 am-------30.22- 34.7 39.9----
2024-02-22 01:48 am-------30.22- 34.7 39.7----
2024-02-22 01:42 am-------30.22- 34.7 39.7----
2024-02-22 01:36 am-------30.22- 34.7 39.7----
2024-02-22 01:30 am-------30.22- 34.9 39.7----
2024-02-22 01:24 am-------30.22- 34.7 39.7----
2024-02-22 01:18 am-------30.23- 34.9 39.7----
2024-02-22 01:12 am-------30.23- 34.7 39.7----
2024-02-22 01:06 am-------30.23- 34.9 39.7----
2024-02-22 01:00 am-------30.23-0.06 34.9 39.7----
2024-02-22 12:54 am-------30.23- 35.2 39.7----